TimeCDT,TemperatureF,Dew PointF,Humidity,Sea Level PressureIn,VisibilityMPH,Wind Direction,Wind SpeedMPH,Gust SpeedMPH,PrecipitationIn,Events,Conditions,WindDirDegrees,DateUTC
12:15 AM,62.6,60.8,94,30.00,10.0,Calm,Calm,-,N/A,,Unknown,0,2012-08-14 05:15:00
12:35 AM,62.6,59.0,88,30.00,10.0,Calm,Calm,-,N/A,,Unknown,0,2012-08-14 05:35:00
12:55 AM,62.6,59.0,88,29.99,10.0,Calm,Calm,-,N/A,,Unknown,0,2012-08-14 05:55:00
1:15 AM,62.6,59.0,88,29.99,10.0,WSW,6.9,-,N/A,,Unknown,240,2012-08-14 06:15:00
1:35 AM,60.8,59.0,94,29.99,10.0,WSW,6.9,-,N/A,,Unknown,240,2012-08-14 06:35:00
1:55 AM,60.8,59.0,94,29.99,10.0,WSW,6.9,-,N/A,,Unknown,250,2012-08-14 06:55:00
2:15 AM,60.8,59.0,94,30.00,10.0,WSW,5.8,-,N/A,,Clear,240,2012-08-14 07:15:00
2:35 AM,59.0,57.2,94,30.00,10.0,West,5.8,-,N/A,,Clear,260,2012-08-14 07:35:00
2:55 AM,60.8,57.2,88,30.00,10.0,West,5.8,-,N/A,,Clear,280,2012-08-14 07:55:00
3:15 AM,59.0,57.2,94,30.00,10.0,West,4.6,-,N/A,,Unknown,280,2012-08-14 08:15:00
3:35 AM,59.0,57.2,94,30.00,10.0,Calm,Calm,-,N/A,,Clear,0,2012-08-14 08:35:00
3:55 AM,59.0,57.2,94,30.00,10.0,Calm,Calm,-,N/A,,Clear,0,2012-08-14 08:55:00
4:15 AM,57.2,55.4,94,30.00,10.0,SW,6.9,-,N/A,,Clear,230,2012-08-14 09:15:00
4:35 AM,57.2,55.4,94,30.00,10.0,West,5.8,-,N/A,,Clear,270,2012-08-14 09:35:00
4:55 AM,57.2,55.4,94,29.99,10.0,WNW,4.6,-,N/A,,Clear,290,2012-08-14 09:55:00
5:15 AM,57.2,55.4,94,29.99,10.0,WNW,4.6,-,N/A,,Clear,290,2012-08-14 10:15:00
5:35 AM,57.2,55.4,94,29.99,10.0,West,3.5,-,N/A,,Clear,260,2012-08-14 10:35:00
5:55 AM,57.2,55.4,94,29.99,10.0,Calm,Calm,-,N/A,,Clear,0,2012-08-14 10:55:00
6:15 AM,57.2,55.4,94,29.99,10.0,Calm,Calm,-,N/A,,Clear,0,2012-08-14 11:15:00
6:35 AM,57.2,55.4,94,29.99,10.0,Calm,Calm,-,N/A,,Clear,0,2012-08-14 11:35:00
6:55 AM,57.2,55.4,94,30.00,10.0,Calm,Calm,-,N/A,,Clear,0,2012-08-14 11:55:00
7:15 AM,57.2,57.2,100,30.00,9.0,Calm,Calm,-,N/A,,Unknown,0,2012-08-14 12:15:00
7:35 AM,59.0,57.2,94,30.00,9.0,Calm,Calm,-,N/A,,Unknown,0,2012-08-14 12:35:00
7:55 AM,59.0,57.2,94,30.00,9.0,SSW,6.9,-,N/A,,Unknown,210,2012-08-14 12:55:00
8:15 AM,60.8,59.0,94,30.00,9.0,SSW,3.5,-,N/A,,Clear,210,2012-08-14 13:15:00
8:35 AM,64.4,60.8,88,29.99,10.0,SSW,4.6,-,N/A,,Clear,210,2012-08-14 13:35:00
8:55 AM,66.2,60.8,83,29.99,10.0,SSW,5.8,-,N/A,,Unknown,210,2012-08-14 13:55:00
9:15 AM,68.0,60.8,78,29.98,10.0,SW,5.8,-,N/A,,Unknown,230,2012-08-14 14:15:00
9:35 AM,69.8,60.8,73,29.98,10.0,SW,4.6,-,N/A,,Unknown,230,2012-08-14 14:35:00
9:55 AM,69.8,60.8,73,29.98,10.0,WSW,6.9,-,N/A,,Clear,250,2012-08-14 14:55:00
10:15 AM,71.6,59.0,64,29.99,10.0,Variable,6.9,-,N/A,,Clear,0,2012-08-14 15:15:00
10:35 AM,73.4,59.0,61,29.99,10.0,WSW,9.2,-,N/A,,Clear,250,2012-08-14 15:35:00
10:55 AM,73.4,59.0,61,29.99,10.0,West,9.2,15.0,N/A,,Clear,270,2012-08-14 15:55:00
11:15 AM,73.4,60.8,65,29.99,10.0,West,11.5,-,N/A,,Unknown,270,2012-08-14 16:15:00
11:35 AM,75.2,60.8,61,29.99,9.0,WSW,10.4,-,N/A,,Clear,250,2012-08-14 16:35:00
11:55 AM,75.2,60.8,61,29.98,10.0,WSW,11.5,-,N/A,,Clear,240,2012-08-14 16:55:00
12:15 PM,75.2,59.0,57,29.98,10.0,West,11.5,-,N/A,,Clear,280,2012-08-14 17:15:00
12:35 PM,77.0,59.0,54,29.97,10.0,WSW,6.9,15.0,N/A,,Scattered Clouds,250,2012-08-14 17:35:00
12:55 PM,78.8,59.0,51,29.97,10.0,WSW,11.5,19.6,N/A,,Partly Cloudy,250,2012-08-14 17:55:00
1:15 PM,77.0,57.2,50,29.97,10.0,West,11.5,-,N/A,,Clear,260,2012-08-14 18:15:00
1:35 PM,78.8,59.0,51,29.96,10.0,West,9.2,-,N/A,,Clear,280,2012-08-14 18:35:00
1:55 PM,78.8,59.0,51,29.95,10.0,WNW,9.2,-,N/A,,Clear,300,2012-08-14 18:55:00
2:15 PM,78.8,59.0,51,29.95,10.0,West,13.8,19.6,N/A,,Partly Cloudy,260,2012-08-14 19:15:00
2:35 PM,78.8,57.2,47,29.94,10.0,West,10.4,-,N/A,,Clear,260,2012-08-14 19:35:00
2:55 PM,80.6,59.0,48,29.93,10.0,WSW,6.9,13.8,N/A,,Clear,250,2012-08-14 19:55:00
3:15 PM,80.6,59.0,48,29.92,10.0,SW,9.2,-,N/A,,Clear,230,2012-08-14 20:15:00
3:35 PM,80.6,57.2,45,29.92,10.0,Variable,3.5,11.5,N/A,,Clear,0,2012-08-14 20:35:00
3:55 PM,80.6,57.2,45,29.92,10.0,WNW,4.6,-,N/A,,Partly Cloudy,300,2012-08-14 20:55:00
4:15 PM,80.6,57.2,45,29.91,10.0,Variable,5.8,-,N/A,,Scattered Clouds,0,2012-08-14 21:15:00
4:35 PM,80.6,57.2,45,29.90,10.0,WSW,6.9,-,N/A,,Partly Cloudy,240,2012-08-14 21:35:00
4:55 PM,80.6,57.2,45,29.89,10.0,South,6.9,-,N/A,,Partly Cloudy,180,2012-08-14 21:55:00
5:15 PM,80.6,57.2,45,29.89,10.0,South,4.6,-,N/A,,Partly Cloudy,180,2012-08-14 22:15:00
5:35 PM,80.6,57.2,45,29.88,10.0,Calm,Calm,-,N/A,,Clear,0,2012-08-14 22:35:00
5:55 PM,80.6,57.2,45,29.88,10.0,SSW,4.6,-,N/A,,Clear,200,2012-08-14 22:55:00
6:15 PM,80.6,57.2,45,29.88,10.0,Calm,Calm,-,N/A,,Clear,0,2012-08-14 23:15:00
6:35 PM,80.6,59.0,48,29.88,10.0,SSE,5.8,-,N/A,,Partly Cloudy,160,2012-08-14 23:35:00
6:55 PM,78.8,59.0,51,29.88,10.0,SE,4.6,-,N/A,,Partly Cloudy,130,2012-08-14 23:55:00
7:15 PM,77.0,60.8,57,29.88,10.0,SE,4.6,-,N/A,,Scattered Clouds,140,2012-08-15 00:15:00
7:35 PM,75.2,60.8,61,29.88,10.0,SE,4.6,-,N/A,,Partly Cloudy,130,2012-08-15 00:35:00
7:55 PM,75.2,62.6,65,29.88,10.0,SE,4.6,-,N/A,,Light Drizzle,130,2012-08-15 00:55:00
8:15 PM,73.4,60.8,65,29.88,10.0,ESE,4.6,-,N/A,,Scattered Clouds,120,2012-08-15 01:15:00
8:35 PM,73.4,62.6,69,29.88,10.0,SE,4.6,-,N/A,,Mostly Cloudy,130,2012-08-15 01:35:00
8:55 PM,71.6,62.6,73,29.88,10.0,SE,5.8,-,N/A,,Mostly Cloudy,140,2012-08-15 01:55:00
9:15 PM,71.6,60.8,69,29.88,10.0,SSE,6.9,-,N/A,,Mostly Cloudy,150,2012-08-15 02:15:00
9:35 PM,69.8,60.8,73,29.88,10.0,SSE,5.8,-,N/A,,Mostly Cloudy,150,2012-08-15 02:35:00
9:55 PM,68.0,60.8,78,29.88,10.0,SSE,6.9,-,N/A,,Mostly Cloudy,150,2012-08-15 02:55:00
10:15 PM,68.0,60.8,78,29.88,10.0,SSE,5.8,-,N/A,,Partly Cloudy,160,2012-08-15 03:15:00
10:35 PM,69.8,59.0,68,29.88,10.0,South,5.8,-,N/A,,Clear,170,2012-08-15 03:35:00
10:55 PM,68.0,59.0,73,29.87,10.0,South,6.9,-,N/A,,Unknown,170,2012-08-15 03:55:00
11:15 PM,68.0,59.0,73,29.87,10.0,South,8.1,-,N/A,,Unknown,190,2012-08-15 04:15:00
11:55 PM,66.2,59.0,78,29.87,10.0,South,8.1,-,N/A,,Unknown,190,2012-08-15 04:55:00